Location: Domicella
(40.8833°N, 14.5833°E)
Time: 20:25:02
(UTC+00:00)

Cosmos 1655 Rocket - Pass Details

Date: 15 May 2026
Orbit: 969 x 1006 km, 83.0° (Epoch: 6 June)

Event Time Altitude Azimuth Distance (km) Brightness Sun altitude
Rises 23:15:30 0° 352° (N) 3,675 8.1 -29.9°
Reaches altitude 10° 23:18:01 10° 353° (N) 2,727 7.2 -29.9°
Enters shadow 23:24:15 89° 328° (NNW) 984 3.9 -29.8°
